Change the Weather History Date:

Saturday, May 11, 2013

  Actual Average Record
Temperature  
Mean Temperature 68 °F -  
Max Temperature 87 °F 64 °F 87 °F (2013)
Min Temperature 48 °F 40 °F 30 °F (1999)
Cooling Degree Days 2    
Growing Degree Days 18 (Base 50)    
Moisture  
Dew Point 49 °F    
Average Humidity 64    
Maximum Humidity 90    
Minimum Humidity 23    
Precipitation  
Precipitation 0.00 in - - ()
Sea Level Pressure  
Sea Level Pressure 30.10 in    
Wind  
Wind Speed 2 mph (North)    
Max Wind Speed 6 mph    
Max Gust Speed -    
Averages and records for this station are not official NWS values.
T = Trace of Precipitation, MM = Missing Value Source: NWS Daily Summary

Daily Weather History Graph

Daily Weather History Graph

Search for Another Location

Airport or City:

Trip Planner

Search our weather history database for the weather conditions in past years. The results will help you decide how hot, cold, wet, or windy it might be!

Date:

Astronomy

May. 11, 2013 Rise Set
Actual Time 6:14 AM MDT 9:03 PM MDT
Civil Twilight 5:39 AM MDT 9:38 PM MDT
Nautical Twilight 4:55 AM MDT 10:23 PM MDT
Astronomical Twilight 4:03 AM MDT 11:15 PM MDT
Moon 7:23 AM MDT (5/11) 10:49 PM MDT (5/11)
Length of Visible Light 15h 59m
Length of Day
14h 49m
Waxing Crescent, 3% of the Moon is Illuminated
May 11
Waxing Crescent
May 17
First Quarter
May 24
Full
May 31
Last Quarter
Jun 8
New

Hourly Weather History & Observations

Time (MDT) Temp. Dew Point Humidity Pressure Visibility Wind Dir Wind Speed Gust Speed Precip Events Conditions
12:52 AM 55.0 °F 48.9 °F 80% 30.17 in - NNW 3.5 mph - N/A   Unknown
1:52 AM 53.1 °F 48.0 °F 83% 30.17 in - Calm Calm - N/A   Unknown
2:52 AM 52.0 °F 46.9 °F 83% 30.17 in - NNW 4.6 mph - N/A   Unknown
3:52 AM 51.1 °F 46.9 °F 86% 30.18 in - North 3.5 mph - N/A   Unknown
4:52 AM 51.1 °F 46.9 °F 86% 30.19 in - Calm Calm - N/A   Unknown
5:52 AM 48.9 °F 46.0 °F 90% 30.19 in - North 3.5 mph - N/A   Unknown
6:52 AM 48.9 °F 46.0 °F 90% 30.22 in - North 4.6 mph - N/A   Unknown
7:52 AM 51.1 °F 46.0 °F 83% 30.22 in - North 3.5 mph - N/A   Unknown
8:52 AM 54.0 °F 46.9 °F 77% 30.22 in - Variable 3.5 mph - N/A   Unknown
9:52 AM 61.0 °F 46.0 °F 58% 30.20 in - Calm Calm - N/A   Unknown
10:52 AM 64.0 °F 46.0 °F 52% 30.17 in - Calm Calm - N/A   Unknown
11:52 AM 70.0 °F 45.0 °F 41% 30.14 in - Calm Calm - N/A   Unknown
12:52 PM 71.1 °F 45.0 °F 39% 30.11 in - Calm Calm - N/A   Unknown
1:52 PM 73.9 °F 46.9 °F 38% 30.07 in - Calm Calm - N/A   Unknown
2:52 PM 81.0 °F 51.1 °F 35% 30.02 in - Calm Calm - N/A   Unknown
3:52 PM 79.0 °F 48.9 °F 35% 30.00 in - Calm Calm - N/A   Unknown
4:52 PM 87.1 °F 45.0 °F 23% 29.96 in - Variable 3.5 mph - N/A   Unknown
5:52 PM 78.1 °F 54.0 °F 43% 29.97 in - North 4.6 mph - N/A   Unknown
6:52 PM 71.1 °F 54.0 °F 55% 29.99 in - North 5.8 mph - N/A   Unknown
7:52 PM 69.1 °F 55.0 °F 61% 29.99 in - North 4.6 mph - N/A   Unknown
8:52 PM 61.0 °F 52.0 °F 72% 30.01 in - Calm Calm - N/A   Unknown
9:52 PM 62.1 °F 54.0 °F 75% 30.02 in - Calm Calm - N/A   Unknown
10:52 PM 60.1 °F 54.0 °F 80% 30.04 in - North 3.5 mph - N/A   Unknown
11:52 PM 59.0 °F 53.1 °F 81% 30.04 in - Calm Calm - N/A   Unknown